HELLAS-SAT 2

Last updated on Thu Oct 30 2025 00:02:47 GMT+0000 (Coordinated Universal Time)

1 27811U 03020A 25302.18359652 -.00000069 00000+0 00000+0 0 9999 2 27811 6.7756 70.6311 0010081 162.3616 220.9251 1.00271836 40536
UTC large
Height (km)
Speed (km/s)
/
Latitude / Longitude
Inclination (degrees)
Orbital Period (minutes)
Azimuth
Elevation
Range (km)
Doppler Factor

Next 0 passes for location: London (51.5072 / 0.1276)

Sorry there are no passes over London.